Location: Bannatyne
(13.0833°N, 59.5333°W)
Time: 14:10:36
(UTC+00:00)

Vanguard 2 Rocket - Pass Details

Date: 22 January 2020
Orbit: 554 x 3326 km, 32.9° (Epoch: 29 March)

Event Time Altitude Azimuth Distance (km) Brightness Sun altitude
Rises 10:18:02 0° 303° (WNW) 3,029 - -2.4°
Exits shadow 10:18:29 - 306° (NW) 2,914 8.9 -2.3°
Reaches altitude 10° 10:21:23 10° 331° (NNW) 2,405 8.6 -1.7°
Maximum altitude 10:24:13 14° 2° (N) 2,429 8.9 -1.0°
Drops below altitude 10° 10:27:42 10° 31° (NNE) 3,087 9.8 -0.2°
Sets 10:33:17 0° 54° (NE) 4,714 11.1 1.0°
